{"data":{"norad_id":64263,"intl_designator":"2025-120H","name":"STARLINK-34276","alt_names":[],"object_type":"PAYLOAD","status":"ACTIVE","operator":null,"country":"US","launch_date":"2025-06-04","launch_site_code":"AFWTR","launch_vehicle":null,"mission":null,"orbit_class":"UNKNOWN","rcs_meters":null,"size_class":null,"mass_kg":null,"dimensions":null,"purposes":["comms"],"wikipedia_slug":null,"has_3d_model":false,"image_url":null,"decayed_at":null,"tle_current":{"epoch":"2026-05-25T05:02:48.648192Z","epoch_age_seconds":66947,"freshness":"FRESH","line1":"1 64263U 25120H   26145.21028528  .00016125  00000+0  55524-3 0  9995","line2":"2 64263  53.1574 121.1307 0001168  80.3483 279.7650 15.30207292 55631","mean_motion":15.30207292,"eccentricity":0.0001168,"inclination_deg":53.1574,"raan_deg":121.1307,"arg_perigee_deg":80.3483,"mean_anomaly_deg":279.765,"bstar":0.00055524,"rev_number":5563,"period_min":94.104897259894,"perigee_km":474.3928279295,"apogee_km":475.99376588686,"semimajor_km":6853.3302969082,"source":"CELESTRAK","updated_at":"2026-05-25T13:38:20.358318Z"}}}